Home > Weather > Lódz > Past weeks

Flag for Poland Past Weather in Lódz, Poland — Yesterday and Last 2 Weeks

Now
71 °F

Partly sunny.


Feels Like: 76 °F
Forecast: 60 / 82 °F
Wind: N/A

Location: Lodz

Current Time: Jun 29, 2016 at 11:16:39 AM

Latest Report: Jun 29, 2016 at 9:00 AM


Visibility: 13 mi

Pressure: 29.96 "Hg

Humidity: 62%

Dew Point: 57 °F

Location of LódzLocation

Past Weather in Lódz — Graph

°F

Lódz Temperature Yesterday

Maximum temperature yesterday: 76 °F (at 6:00 PM)
Minimum temperature yesterday: 59 °F (at 6:00 AM)
Average temperature yesterday: 66 °F

High & Low Weather Summary for the Past Weeks

 TemperatureHumidityPressure
High93 °F (Jun 25, 4:00 PM)100% (Jun 21, 5:00 AM)30.32 "Hg (Jun 21, 5:00 AM)
Low49 °F (Jun 19, 4:00 AM)29% (Jun 19, 5:00 PM)29.41 "Hg (Jun 17, 10:00 AM)
Average68 °F70%29.96 "Hg
* Reported Jun 14 9:00 AM — Jun 29 9:00 AM, Lódz, Weather by CustomWeather, © 2016

Note: Actual official high and low records may vary slightly from our data, if they occured in-between our weather recording intervals... More about our weather records

Advertising

Lódz Weather History for the Previous 24 Hours

Scroll right to see more
 ConditionsComfort  
Time TempWeatherWind HumidityBarometerVisibility
9:00 AM
Wed, Jun 29
71 °FPartly sunny.N/A62%29.96 "Hg12 mi
8:00 AM67 °FPassing clouds.N/A72%29.98 "Hg12 mi
7:00 AM63 °FScattered clouds.N/A83%29.99 "Hg12 mi
6:00 AM56 °FScattered clouds.N/A95%30.01 "Hg7 mi
5:00 AM52 °FFog.N/A97%30.01 "Hg5 mi
4:00 AM53 °FPassing clouds.1 mph95%30.01 "Hg6 mi
3:00 AM53 °FClear.No wind93%30.01 "Hg6 mi
2:00 AM55 °FClear.1 mph95%30.01 "Hg7 mi
1:00 AM56 °FClear.No wind92%30.02 "Hg9 mi
12:00 AM58 °FClear.1 mph91%30.02 "Hg12 mi
11:00 PM
Tue, Jun 28
62 °FPassing clouds.2 mph83%30.02 "Hg12 mi
10:00 PM67 °FPassing clouds.2 mph66%30.00 "Hg12 mi
9:00 PM65 °FScattered clouds.No wind74%29.99 "Hg12 mi
8:00 PM69 °FScattered clouds.No wind61%29.98 "Hg12 mi
7:00 PM74 °FScattered clouds.2 mph46%29.97 "Hg12 mi
6:00 PM76 °FScattered clouds.1 mph39%29.97 "Hg12 mi
5:00 PM75 °FScattered clouds.N/A43%29.98 "Hg12 mi
4:00 PM74 °FScattered clouds.1 mph43%29.99 "Hg12 mi
3:00 PM72 °FPartly sunny.2 mph48%30.01 "Hg12 mi
2:00 PM71 °FPartly sunny.1 mph52%30.02 "Hg12 mi
1:00 PM68 °FOvercast.2 mph61%30.04 "Hg12 mi
12:00 PM69 °FPartly sunny.1 mph58%30.04 "Hg12 mi
11:00 AM66 °FPartly sunny.1 mph73%30.05 "Hg12 mi
Weather by CustomWeather, © 2016

See weather overviewHow to use our weather pages